Location: Flensburg
(54.6357°N, 9.5142°E)
Time: 03:59:12
(UTC+01:00)

ISS - Pass Details

Date: 11 November 2017
Orbit: 402 x 407 km, 51.6° (Epoch: 19 November)

Event Time Altitude Azimuth Distance (km) Brightness Sun altitude
Exits shadow 06:42:44 11° 261° (W) 1,430 -1.6 -9.0°
Maximum altitude 06:45:23 25° 205° (SSW) 861 -2.2 -8.7°
Drops below altitude 10° 06:48:07 10° 148° (SSE) 1,453 -0.2 -8.3°
Sets 06:50:24 0° 135° (SE) 2,310 1.3 -8.0°
